Maryland Science Center, MD

10:37 AM EDT on September 16, 2019 (GMT -0400)
Maryland Science Center

Weather History for KDMH - August, 2019

Change the Weather History Date:

Saturday, August 24, 2019

  Actual Average Record
Temperature  
Mean Temperature 72 °F 78 °F  
Max Temperature 79 °F 87 °F 95 °F (1998)
Min Temperature 64 °F 70 °F 64 °F (2003)
Degree Days  
Heating Degree Days 0 0  
Month to date heating degree days 0 0  
Since 1 June heating degree days 0 5  
Since 1 July heating degree days 0 0  
Cooling Degree Days 7 13  
Month to date cooling degree days 393 344  
Year to date cooling degree days 1572 1308  
Since 1 June cooling degree days 1347 1169  
Growing Degree Days 20 (Base 50)    
Moisture  
Dew Point 55 °F    
Average Humidity 61    
Maximum Humidity 76    
Minimum Humidity 46    
Precipitation  
Precipitation 0.00 in 0.12 in 1.90 in (1999)
Month to date precipitation 5.23 2.62  
Year to date precipitation 30.73 26.60  
Sea Level Pressure  
Sea Level Pressure 30.16 in    
Wind  
Wind Speed - (North)    
Max Wind Speed -    
Max Gust Speed -    
T = Trace of Precipitation, MM = Missing Value Source: NWS Daily Summary

Daily Weather History Graph

Daily Weather History Graph

Search for Another Location

Airport or City:

Astronomy

Aug. 24, 2019 Rise Set
Actual Time 6:27 AM EDT 7:49 PM EDT
Civil Twilight 5:59 AM EDT 8:17 PM EDT
Nautical Twilight 5:25 AM EDT 8:50 PM EDT
Astronomical Twilight 4:50 AM EDT 9:26 PM EDT
Moon 12:19 AM EDT (8/24) 3:01 PM EDT (8/24)
Length of Visible Light 14h 18m
Length of Day
13h 22m
Last Quarter, 39% of the Moon is Illuminated
Aug 24
Last Quarter
Aug 30
New
Sep 5
First Quarter
Sep 14
Full
Sep 21
Last Quarter

Hourly Weather History & Observations

Time (EDT) Temp. Dew Point Humidity Pressure Visibility Wind Dir Wind Speed Gust Speed Precip Events Conditions
12:54 AM 68.0 °F 60.1 °F 76% 30.09 in - North - - N/A   Unknown
1:54 AM 68.0 °F 59.0 °F 73% 30.09 in - North - - N/A   Unknown
3:54 AM 66.9 °F 55.9 °F 68% 30.10 in - North - - N/A   Unknown
4:54 AM 66.0 °F 55.0 °F 68% 30.12 in - North - - N/A   Unknown
5:54 AM 64.9 °F 55.0 °F 70% 30.13 in - North - - N/A   Unknown
6:54 AM 64.0 °F 55.0 °F 73% 30.15 in - North - - N/A   Unknown
7:54 AM 66.0 °F 55.0 °F 68% 30.19 in - North - - N/A   Unknown
9:54 AM 71.1 °F 55.9 °F 59% 30.22 in - North - - N/A   Unknown
10:54 AM 73.0 °F 55.9 °F 55% 30.22 in - North - - N/A   Unknown
12:54 PM 77.0 °F 57.0 °F 50% 30.18 in - North - - N/A   Unknown
1:54 PM 75.9 °F 55.9 °F 50% 30.18 in - North - - N/A   Unknown
2:54 PM 75.9 °F 54.0 °F 46% 30.14 in - North - - N/A   Unknown
3:54 PM 75.9 °F 55.0 °F 48% 30.14 in - North - - 0.01 in   Unknown
4:54 PM 75.9 °F 53.1 °F 45% 30.15 in - North - - N/A   Unknown
5:54 PM 75.0 °F 54.0 °F 48% 30.15 in - North - - N/A   Unknown
6:54 PM 75.0 °F 54.0 °F 48% 30.16 in - North - - N/A   Unknown
7:54 PM 73.9 °F 53.1 °F 48% 30.18 in - North - - N/A   Unknown
8:54 PM 73.9 °F 55.0 °F 52% 30.19 in - North - - N/A   Unknown
9:54 PM 73.0 °F 54.0 °F 51% 30.21 in - North - - N/A   Unknown
10:54 PM 73.0 °F 53.1 °F 49% 30.21 in - North - - N/A   Unknown
11:54 PM 72.0 °F 55.0 °F 55% 30.20 in - North - - N/A   Unknown